Retour au catalogue

FENGYUN 1C DEB

ActifSSO
NORAD 30213·DEBRIS·🇨🇳 China

Lancé May 10, 1999 depuis Taiyuan Satellite Launch Center

Loading…

Prochains Passages (prochaines 24 heures)

TLE

FraisSource: Space-Track

Époque: Sep 14, 2026, 03:58 UTC

1 30213U 99025VW  26257.16575406  .00001695  00000-0  91395-3 0  9991
2 30213  99.1121 343.2632 0070310 190.0050 198.5685 14.12888037  4034

Suivez FENGYUN 1C DEB en temps réel avec AllMySat

Download on the App Store